Weather History for Rosh-Pina, Israel

Change the Weather History Date:

Thursday, February 7, 2013

  Actual Average (OLBA) Record (OLBA)
Temperature  
Mean Temperature 56 °F -  
Max Temperature 62 °F 60 °F 71 °F (2002)
Min Temperature 50 °F 50 °F 42 °F (1997)
Degree Days  
Heating Degree Days 8    
Growing Degree Days 6 (Base 50)    
Moisture  
Dew Point 47 °F    
Average Humidity 70    
Maximum Humidity 88    
Minimum Humidity 59    
Precipitation  
Precipitation 0.00 in - - ()
Sea Level Pressure  
Sea Level Pressure 30.11 in    
Wind  
Wind Speed 4 mph ()    
Max Wind Speed 9 mph    
Max Gust Speed -    
Visibility 2.6 miles    
Events Rain    
Averages and records for this station are not official NWS values.
T = Trace of Precipitation, MM = Missing Value Source: Averaged Metar Reports

Daily Weather History Graph

Daily Weather History Graph

Search for Another Location

Airport:

Trip Planner

Search our weather history database for the weather conditions in past years. The results will help you decide how hot, cold, wet, or windy it might be!

Date:

Astronomy

Feb. 07, 2013 Rise Set
Actual Time 6:28 AM IST 5:15 PM IST
Civil Twilight 6:02 AM IST 5:41 PM IST
Nautical Twilight 5:33 AM IST 6:10 PM IST
Astronomical Twilight 5:04 AM IST 6:39 PM IST
Moon 3:43 AM IST (2/7) 2:21 PM IST (2/7)
Length of Visible Light 11h 38m
Length of Day
10h 47m
Waning Crescent, 11% of the Moon is Illuminated
Feb 7
Waning Crescent
Feb 10
New
Feb 17
First Quarter
Feb 25
Full
Mar 4
Last Quarter

Hourly Weather History & Observations

Time (IST) Temp. Dew Point Humidity Pressure Visibility Wind Dir Wind Speed Gust Speed Precip Events Conditions
6:50 AM 51.8 °F 46.4 °F 82% 30.09 in 1.9 mi Variable 2.3 mph - N/A   Haze
7:20 AM 51.8 °F 46.4 °F 82% 30.09 in 3.1 mi Calm Calm - N/A   Haze
8:20 AM 53.6 °F 50.0 °F 88% 30.12 in 1.9 mi Variable 1.2 mph - N/A   Haze
8:50 AM 53.6 °F 48.2 °F 82% 30.12 in 2.5 mi Variable 2.3 mph - N/A   Haze
9:50 AM 57.2 °F 48.2 °F 72% 30.15 in 1.9 mi Variable 2.3 mph - N/A   Haze
10:20 AM 57.2 °F 46.4 °F 67% 30.15 in 1.9 mi SSE 5.8 mph - N/A   Haze
10:50 AM 55.4 °F 46.4 °F 72% 30.15 in 1.9 mi South 8.1 mph - N/A Rain Light Rain
11:50 AM 57.2 °F 46.4 °F 67% 30.12 in 1.9 mi South 6.9 mph - N/A   Haze
12:20 PM 59.0 °F 46.4 °F 63% 30.12 in 2.5 mi SSE 6.9 mph - N/A   Haze
12:50 PM 59.0 °F 46.4 °F 63% 30.09 in 2.5 mi SSE 6.9 mph - N/A   Haze
1:20 PM 60.8 °F 46.4 °F 59% 30.09 in 2.5 mi SE 9.2 mph - N/A   Haze
1:50 PM 60.8 °F 46.4 °F 59% 30.09 in 2.8 mi SE 6.9 mph - N/A   Haze
2:50 PM 60.8 °F 48.2 °F 63% 30.09 in 3.1 mi South 4.6 mph - N/A   Partly Cloudy
3:20 PM 60.8 °F 48.2 °F 63% 30.09 in 3.1 mi SSE 4.6 mph - N/A   Partly Cloudy
3:50 PM 62.6 °F 48.2 °F 59% 30.09 in 3.1 mi South 4.6 mph - N/A   Partly Cloudy
4:20 PM 60.8 °F 48.2 °F 63% 30.09 in 3.1 mi SSE 4.6 mph - N/A   Clear
4:50 PM 59.0 °F 48.2 °F 67% 30.09 in 3.1 mi Variable 3.5 mph - N/A   Clear
5:50 PM 55.4 °F 46.4 °F 72% 30.09 in 2.8 mi Variable 3.5 mph - N/A   Haze
6:50 PM 50.0 °F 44.6 °F 82% 30.12 in 3.7 mi WSW 5.8 mph - N/A   Clear